Index of /20260430/WXO-DD/model_gdps/15km/12/174
Name Last modified Size Description
Parent Directory -
20260430T12Z_MSC_GDPS_AbsoluteVorticity_IsbL-0200_LatLon0.15_PT174H.grib2 2026-04-30 16:31 1.5M
20260430T12Z_MSC_GDPS_AbsoluteVorticity_IsbL-0250_LatLon0.15_PT174H.grib2 2026-04-30 16:31 1.3M
20260430T12Z_MSC_GDPS_AbsoluteVorticity_IsbL-0500_LatLon0.15_PT174H.grib2 2026-04-30 16:31 1.5M
20260430T12Z_MSC_GDPS_AbsoluteVorticity_IsbL-0700_LatLon0.15_PT174H.grib2 2026-04-30 16:31 1.3M
20260430T12Z_MSC_GDPS_AbsoluteVorticity_IsbL-0850_LatLon0.15_PT174H.grib2 2026-04-30 16:31 1.6M
20260430T12Z_MSC_GDPS_AirTemp-Max_AGL-2m_LatLon0.15_PT174H.grib2 2026-04-30 16:31 744K
20260430T12Z_MSC_GDPS_AirTemp-Min_AGL-2m_LatLon0.15_PT174H.grib2 2026-04-30 16:31 791K
20260430T12Z_MSC_GDPS_AirTemp_AGL-120m_LatLon0.15_PT174H.grib2 2026-04-30 16:31 904K
20260430T12Z_MSC_GDPS_AirTemp_AGL-2m_LatLon0.15_PT174H.grib2 2026-04-30 16:31 1.0M
20260430T12Z_MSC_GDPS_AirTemp_AGL-40m_LatLon0.15_PT174H.grib2 2026-04-30 16:31 809K
20260430T12Z_MSC_GDPS_AirTemp_AGL-80m_LatLon0.15_PT174H.grib2 2026-04-30 16:31 913K
20260430T12Z_MSC_GDPS_AirTemp_IsbL-0001_LatLon0.15_PT174H.grib2 2026-04-30 16:31 662K
20260430T12Z_MSC_GDPS_AirTemp_IsbL-0005_LatLon0.15_PT174H.grib2 2026-04-30 16:31 692K
20260430T12Z_MSC_GDPS_AirTemp_IsbL-0010_LatLon0.15_PT174H.grib2 2026-04-30 16:31 694K
20260430T12Z_MSC_GDPS_AirTemp_IsbL-0020_LatLon0.15_PT174H.grib2 2026-04-30 16:31 790K
20260430T12Z_MSC_GDPS_AirTemp_IsbL-0030_LatLon0.15_PT174H.grib2 2026-04-30 16:31 838K
20260430T12Z_MSC_GDPS_AirTemp_IsbL-0050_LatLon0.15_PT174H.grib2 2026-04-30 16:31 802K
20260430T12Z_MSC_GDPS_AirTemp_IsbL-0100_LatLon0.15_PT174H.grib2 2026-04-30 16:31 966K
20260430T12Z_MSC_GDPS_AirTemp_IsbL-0150_LatLon0.15_PT174H.grib2 2026-04-30 16:31 1.0M
20260430T12Z_MSC_GDPS_AirTemp_IsbL-0175_LatLon0.15_PT174H.grib2 2026-04-30 16:31 958K
20260430T12Z_MSC_GDPS_AirTemp_IsbL-0200_LatLon0.15_PT174H.grib2 2026-04-30 16:31 1.0M
20260430T12Z_MSC_GDPS_AirTemp_IsbL-0225_LatLon0.15_PT174H.grib2 2026-04-30 16:31 1.0M
20260430T12Z_MSC_GDPS_AirTemp_IsbL-0250_LatLon0.15_PT174H.grib2 2026-04-30 16:31 1.0M
20260430T12Z_MSC_GDPS_AirTemp_IsbL-0275_LatLon0.15_PT174H.grib2 2026-04-30 16:31 1.0M
20260430T12Z_MSC_GDPS_AirTemp_IsbL-0300_LatLon0.15_PT174H.grib2 2026-04-30 16:31 1.0M
20260430T12Z_MSC_GDPS_AirTemp_IsbL-0350_LatLon0.15_PT174H.grib2 2026-04-30 16:31 929K
20260430T12Z_MSC_GDPS_AirTemp_IsbL-0400_LatLon0.15_PT174H.grib2 2026-04-30 16:31 945K
20260430T12Z_MSC_GDPS_AirTemp_IsbL-0450_LatLon0.15_PT174H.grib2 2026-04-30 16:31 968K
20260430T12Z_MSC_GDPS_AirTemp_IsbL-0500_LatLon0.15_PT174H.grib2 2026-04-30 16:31 1.0M
20260430T12Z_MSC_GDPS_AirTemp_IsbL-0550_LatLon0.15_PT174H.grib2 2026-04-30 16:31 808K
20260430T12Z_MSC_GDPS_AirTemp_IsbL-0600_LatLon0.15_PT174H.grib2 2026-04-30 16:31 899K
20260430T12Z_MSC_GDPS_AirTemp_IsbL-0650_LatLon0.15_PT174H.grib2 2026-04-30 16:31 925K
20260430T12Z_MSC_GDPS_AirTemp_IsbL-0700_LatLon0.15_PT174H.grib2 2026-04-30 16:31 957K
20260430T12Z_MSC_GDPS_AirTemp_IsbL-0750_LatLon0.15_PT174H.grib2 2026-04-30 16:31 1.0M
20260430T12Z_MSC_GDPS_AirTemp_IsbL-0800_LatLon0.15_PT174H.grib2 2026-04-30 16:31 1.1M
20260430T12Z_MSC_GDPS_AirTemp_IsbL-0850_LatLon0.15_PT174H.grib2 2026-04-30 16:31 1.1M
20260430T12Z_MSC_GDPS_AirTemp_IsbL-0875_LatLon0.15_PT174H.grib2 2026-04-30 16:31 1.2M
20260430T12Z_MSC_GDPS_AirTemp_IsbL-0900_LatLon0.15_PT174H.grib2 2026-04-30 16:31 1.2M
20260430T12Z_MSC_GDPS_AirTemp_IsbL-0925_LatLon0.15_PT174H.grib2 2026-04-30 16:31 1.1M
20260430T12Z_MSC_GDPS_AirTemp_IsbL-0950_LatLon0.15_PT174H.grib2 2026-04-30 16:31 1.1M
20260430T12Z_MSC_GDPS_AirTemp_IsbL-0970_LatLon0.15_PT174H.grib2 2026-04-30 16:31 1.2M
20260430T12Z_MSC_GDPS_AirTemp_IsbL-0985_LatLon0.15_PT174H.grib2 2026-04-30 16:31 1.1M
20260430T12Z_MSC_GDPS_AirTemp_IsbL-1000_LatLon0.15_PT174H.grib2 2026-04-30 16:31 1.1M
20260430T12Z_MSC_GDPS_AirTemp_IsbL-1015_LatLon0.15_PT174H.grib2 2026-04-30 16:31 1.1M
20260430T12Z_MSC_GDPS_Albedo_Sfc_LatLon0.15_PT174H.grib2 2026-04-30 16:31 245K
20260430T12Z_MSC_GDPS_CAPE_Sfc_LatLon0.15_PT174H.grib2 2026-04-30 16:31 4.0M
20260430T12Z_MSC_GDPS_CIN_Sfc_LatLon0.15_PT174H.grib2 2026-04-30 16:31 2.9M
20260430T12Z_MSC_GDPS_CloudWater_EAtm_LatLon0.15_PT174H.grib2 2026-04-30 16:31 541K
20260430T12Z_MSC_GDPS_ConvectivePrecip-Accum_Sfc_LatLon0.15_PT174H.grib2 2026-04-30 16:31 3.8M
20260430T12Z_MSC_GDPS_DewPointDepression_AGL-2m_LatLon0.15_PT174H.grib2 2026-04-30 16:31 768K
20260430T12Z_MSC_GDPS_DewPointDepression_IsbL-0010_LatLon0.15_PT174H.grib2 2026-04-30 16:31 67K
20260430T12Z_MSC_GDPS_DewPointDepression_IsbL-0020_LatLon0.15_PT174H.grib2 2026-04-30 16:31 67K
20260430T12Z_MSC_GDPS_DewPointDepression_IsbL-0030_LatLon0.15_PT174H.grib2 2026-04-30 16:31 86K
20260430T12Z_MSC_GDPS_DewPointDepression_IsbL-0050_LatLon0.15_PT174H.grib2 2026-04-30 16:31 378K
20260430T12Z_MSC_GDPS_DewPointDepression_IsbL-0100_LatLon0.15_PT174H.grib2 2026-04-30 16:31 397K
20260430T12Z_MSC_GDPS_DewPointDepression_IsbL-0150_LatLon0.15_PT174H.grib2 2026-04-30 16:31 487K
20260430T12Z_MSC_GDPS_DewPointDepression_IsbL-0175_LatLon0.15_PT174H.grib2 2026-04-30 16:31 591K
20260430T12Z_MSC_GDPS_DewPointDepression_IsbL-0200_LatLon0.15_PT174H.grib2 2026-04-30 16:31 691K
20260430T12Z_MSC_GDPS_DewPointDepression_IsbL-0225_LatLon0.15_PT174H.grib2 2026-04-30 16:31 769K
20260430T12Z_MSC_GDPS_DewPointDepression_IsbL-0250_LatLon0.15_PT174H.grib2 2026-04-30 16:31 869K
20260430T12Z_MSC_GDPS_DewPointDepression_IsbL-0275_LatLon0.15_PT174H.grib2 2026-04-30 16:31 897K
20260430T12Z_MSC_GDPS_DewPointDepression_IsbL-0300_LatLon0.15_PT174H.grib2 2026-04-30 16:31 940K
20260430T12Z_MSC_GDPS_DewPointDepression_IsbL-0350_LatLon0.15_PT174H.grib2 2026-04-30 16:31 969K
20260430T12Z_MSC_GDPS_DewPointDepression_IsbL-0400_LatLon0.15_PT174H.grib2 2026-04-30 16:31 1.0M
20260430T12Z_MSC_GDPS_DewPointDepression_IsbL-0450_LatLon0.15_PT174H.grib2 2026-04-30 16:31 1.0M
20260430T12Z_MSC_GDPS_DewPointDepression_IsbL-0500_LatLon0.15_PT174H.grib2 2026-04-30 16:31 1.0M
20260430T12Z_MSC_GDPS_DewPointDepression_IsbL-0550_LatLon0.15_PT174H.grib2 2026-04-30 16:31 1.0M
20260430T12Z_MSC_GDPS_DewPointDepression_IsbL-0600_LatLon0.15_PT174H.grib2 2026-04-30 16:31 1.1M
20260430T12Z_MSC_GDPS_DewPointDepression_IsbL-0650_LatLon0.15_PT174H.grib2 2026-04-30 16:31 1.1M
20260430T12Z_MSC_GDPS_DewPointDepression_IsbL-0700_LatLon0.15_PT174H.grib2 2026-04-30 16:31 1.1M
20260430T12Z_MSC_GDPS_DewPointDepression_IsbL-0750_LatLon0.15_PT174H.grib2 2026-04-30 16:31 1.1M
20260430T12Z_MSC_GDPS_DewPointDepression_IsbL-0800_LatLon0.15_PT174H.grib2 2026-04-30 16:31 1.2M
20260430T12Z_MSC_GDPS_DewPointDepression_IsbL-0850_LatLon0.15_PT174H.grib2 2026-04-30 16:31 1.2M
20260430T12Z_MSC_GDPS_DewPointDepression_IsbL-0875_LatLon0.15_PT174H.grib2 2026-04-30 16:31 1.1M
20260430T12Z_MSC_GDPS_DewPointDepression_IsbL-0900_LatLon0.15_PT174H.grib2 2026-04-30 16:31 1.1M
20260430T12Z_MSC_GDPS_DewPointDepression_IsbL-0925_LatLon0.15_PT174H.grib2 2026-04-30 16:31 1.0M
20260430T12Z_MSC_GDPS_DewPointDepression_IsbL-0950_LatLon0.15_PT174H.grib2 2026-04-30 16:31 1.0M
20260430T12Z_MSC_GDPS_DewPointDepression_IsbL-0970_LatLon0.15_PT174H.grib2 2026-04-30 16:31 1.0M
20260430T12Z_MSC_GDPS_DewPointDepression_IsbL-0985_LatLon0.15_PT174H.grib2 2026-04-30 16:31 1.0M
20260430T12Z_MSC_GDPS_DewPointDepression_IsbL-1000_LatLon0.15_PT174H.grib2 2026-04-30 16:31 1.0M
20260430T12Z_MSC_GDPS_DewPointDepression_IsbL-1015_LatLon0.15_PT174H.grib2 2026-04-30 16:31 925K
20260430T12Z_MSC_GDPS_DewPoint_AGL-2m_LatLon0.15_PT174H.grib2 2026-04-30 16:31 614K
20260430T12Z_MSC_GDPS_DownwardLongwaveRadiationFlux-Accum_Sfc_LatLon0.15_PT174H.grib2 2026-04-30 16:31 646K
20260430T12Z_MSC_GDPS_DownwardShortwaveRadiationFlux-Accum_NTAtm_LatLon0.15_PT174H.grib2 2026-04-30 16:31 226K
20260430T12Z_MSC_GDPS_DownwardShortwaveRadiationFlux-Accum_Sfc_LatLon0.15_PT174H.grib2 2026-04-30 16:31 830K
20260430T12Z_MSC_GDPS_FreezingRain-Accum12h_Sfc_LatLon0.15_PT174H.grib2 2026-04-30 16:31 103K
20260430T12Z_MSC_GDPS_FreezingRain-Accum24h_Sfc_LatLon0.15_PT174H.grib2 2026-04-30 16:31 153K
20260430T12Z_MSC_GDPS_FreezingRain-Accum6h_Sfc_LatLon0.15_PT174H.grib2 2026-04-30 16:31 77K
20260430T12Z_MSC_GDPS_FreezingRain-Accum_Sfc_LatLon0.15_PT174H.grib2 2026-04-30 16:31 490K
20260430T12Z_MSC_GDPS_GeopotentialHeight_IsbL-0001_LatLon0.15_PT174H.grib2 2026-04-30 16:31 435K
20260430T12Z_MSC_GDPS_GeopotentialHeight_IsbL-0005_LatLon0.15_PT174H.grib2 2026-04-30 16:31 493K
20260430T12Z_MSC_GDPS_GeopotentialHeight_IsbL-0010_LatLon0.15_PT174H.grib2 2026-04-30 16:31 479K
20260430T12Z_MSC_GDPS_GeopotentialHeight_IsbL-0020_LatLon0.15_PT174H.grib2 2026-04-30 16:31 412K
20260430T12Z_MSC_GDPS_GeopotentialHeight_IsbL-0030_LatLon0.15_PT174H.grib2 2026-04-30 16:31 416K
20260430T12Z_MSC_GDPS_GeopotentialHeight_IsbL-0050_LatLon0.15_PT174H.grib2 2026-04-30 16:31 563K
20260430T12Z_MSC_GDPS_GeopotentialHeight_IsbL-0100_LatLon0.15_PT174H.grib2 2026-04-30 16:31 605K
20260430T12Z_MSC_GDPS_GeopotentialHeight_IsbL-0150_LatLon0.15_PT174H.grib2 2026-04-30 16:31 626K
20260430T12Z_MSC_GDPS_GeopotentialHeight_IsbL-0175_LatLon0.15_PT174H.grib2 2026-04-30 16:31 629K
20260430T12Z_MSC_GDPS_GeopotentialHeight_IsbL-0200_LatLon0.15_PT174H.grib2 2026-04-30 16:31 634K
20260430T12Z_MSC_GDPS_GeopotentialHeight_IsbL-0225_LatLon0.15_PT174H.grib2 2026-04-30 16:31 639K
20260430T12Z_MSC_GDPS_GeopotentialHeight_IsbL-0250_LatLon0.15_PT174H.grib2 2026-04-30 16:31 642K
20260430T12Z_MSC_GDPS_GeopotentialHeight_IsbL-0275_LatLon0.15_PT174H.grib2 2026-04-30 16:31 639K
20260430T12Z_MSC_GDPS_GeopotentialHeight_IsbL-0300_LatLon0.15_PT174H.grib2 2026-04-30 16:31 639K
20260430T12Z_MSC_GDPS_GeopotentialHeight_IsbL-0350_LatLon0.15_PT174H.grib2 2026-04-30 16:31 627K
20260430T12Z_MSC_GDPS_GeopotentialHeight_IsbL-0400_LatLon0.15_PT174H.grib2 2026-04-30 16:31 619K
20260430T12Z_MSC_GDPS_GeopotentialHeight_IsbL-0450_LatLon0.15_PT174H.grib2 2026-04-30 16:31 610K
20260430T12Z_MSC_GDPS_GeopotentialHeight_IsbL-0500_LatLon0.15_PT174H.grib2 2026-04-30 16:31 532K
20260430T12Z_MSC_GDPS_GeopotentialHeight_IsbL-0550_LatLon0.15_PT174H.grib2 2026-04-30 16:31 524K
20260430T12Z_MSC_GDPS_GeopotentialHeight_IsbL-0600_LatLon0.15_PT174H.grib2 2026-04-30 16:31 523K
20260430T12Z_MSC_GDPS_GeopotentialHeight_IsbL-0650_LatLon0.15_PT174H.grib2 2026-04-30 16:31 691K
20260430T12Z_MSC_GDPS_GeopotentialHeight_IsbL-0700_LatLon0.15_PT174H.grib2 2026-04-30 16:31 688K
20260430T12Z_MSC_GDPS_GeopotentialHeight_IsbL-0750_LatLon0.15_PT174H.grib2 2026-04-30 16:31 692K
20260430T12Z_MSC_GDPS_GeopotentialHeight_IsbL-0800_LatLon0.15_PT174H.grib2 2026-04-30 16:31 706K
20260430T12Z_MSC_GDPS_GeopotentialHeight_IsbL-0850_LatLon0.15_PT174H.grib2 2026-04-30 16:31 718K
20260430T12Z_MSC_GDPS_GeopotentialHeight_IsbL-0875_LatLon0.15_PT174H.grib2 2026-04-30 16:31 721K
20260430T12Z_MSC_GDPS_GeopotentialHeight_IsbL-0900_LatLon0.15_PT174H.grib2 2026-04-30 16:31 727K
20260430T12Z_MSC_GDPS_GeopotentialHeight_IsbL-0925_LatLon0.15_PT174H.grib2 2026-04-30 16:31 736K
20260430T12Z_MSC_GDPS_GeopotentialHeight_IsbL-0950_LatLon0.15_PT174H.grib2 2026-04-30 16:31 743K
20260430T12Z_MSC_GDPS_GeopotentialHeight_IsbL-0970_LatLon0.15_PT174H.grib2 2026-04-30 16:31 753K
20260430T12Z_MSC_GDPS_GeopotentialHeight_IsbL-0985_LatLon0.15_PT174H.grib2 2026-04-30 16:31 768K
20260430T12Z_MSC_GDPS_GeopotentialHeight_IsbL-1000_LatLon0.15_PT174H.grib2 2026-04-30 16:31 789K
20260430T12Z_MSC_GDPS_GeopotentialHeight_IsbL-1015_LatLon0.15_PT174H.grib2 2026-04-30 16:31 812K
20260430T12Z_MSC_GDPS_Humidex_Sfc_LatLon0.15_PT174H.grib2 2026-04-30 16:31 5.3M
20260430T12Z_MSC_GDPS_IcePellets-Accum12h_Sfc_LatLon0.15_PT174H.grib2 2026-04-30 16:31 7.5K
20260430T12Z_MSC_GDPS_IcePellets-Accum24h_Sfc_LatLon0.15_PT174H.grib2 2026-04-30 16:31 15K
20260430T12Z_MSC_GDPS_IcePellets-Accum6h_Sfc_LatLon0.15_PT174H.grib2 2026-04-30 16:31 5.7K
20260430T12Z_MSC_GDPS_IcePellets-Accum_Sfc_LatLon0.15_PT174H.grib2 2026-04-30 16:31 148K
20260430T12Z_MSC_GDPS_KIndex_Sfc_LatLon0.15_PT174H.grib2 2026-04-30 16:31 6.5M
20260430T12Z_MSC_GDPS_LatentHeatNetFlux_Sfc_LatLon0.15_PT174H.grib2 2026-04-30 16:31 691K
20260430T12Z_MSC_GDPS_LiftedIndex-MU-VT_IsbL-0500_LatLon0.15_PT174H.grib2 2026-04-30 16:31 5.4M
20260430T12Z_MSC_GDPS_NetLongwaveRadiationFlux-Accum_Sfc_LatLon0.15_PT174H.grib2 2026-04-30 16:31 865K
20260430T12Z_MSC_GDPS_NetShortwaveRadiationFlux-Accum_Sfc_LatLon0.15_PT174H.grib2 2026-04-30 16:31 827K
20260430T12Z_MSC_GDPS_O3MixingRatio_Sfc_LatLon0.15_PT174H.grib2 2026-04-30 16:45 1.9M
20260430T12Z_MSC_GDPS_O3_EAtm_LatLon0.15_PT174H.grib2 2026-04-30 16:45 2.4M
20260430T12Z_MSC_GDPS_PlanetaryBoundaryLayerHeight_Sfc_LatLon0.15_PT174H.grib2 2026-04-30 16:31 2.4M
20260430T12Z_MSC_GDPS_Precip-Accum12h_Sfc_LatLon0.15_PT174H.grib2 2026-04-30 16:31 4.1M
20260430T12Z_MSC_GDPS_Precip-Accum24h_Sfc_LatLon0.15_PT174H.grib2 2026-04-30 16:31 4.6M
20260430T12Z_MSC_GDPS_Precip-Accum6h_Sfc_LatLon0.15_PT174H.grib2 2026-04-30 16:31 3.9M
20260430T12Z_MSC_GDPS_Precip-Accum_Sfc_LatLon0.15_PT174H.grib2 2026-04-30 16:31 5.4M
20260430T12Z_MSC_GDPS_PrecipRate_Sfc_LatLon0.15_PT174H.grib2 2026-04-30 16:31 3.0M
20260430T12Z_MSC_GDPS_PrecipType-Instant_Sfc_LatLon0.15_PT174H.grib2 2026-04-30 16:31 1.6M
20260430T12Z_MSC_GDPS_Pressure_MSL_LatLon0.15_PT174H.grib2 2026-04-30 16:31 725K
20260430T12Z_MSC_GDPS_Pressure_PVU-1.5_LatLon0.15_PT174H.grib2 2026-04-30 16:31 5.8M
20260430T12Z_MSC_GDPS_Pressure_PVU-1_LatLon0.15_PT174H.grib2 2026-04-30 16:31 6.0M
20260430T12Z_MSC_GDPS_Pressure_PVU-2_LatLon0.15_PT174H.grib2 2026-04-30 16:31 5.6M
20260430T12Z_MSC_GDPS_Pressure_Sfc_LatLon0.15_PT174H.grib2 2026-04-30 16:31 1.1M
20260430T12Z_MSC_GDPS_RadiativeTemp_Sfc_LatLon0.15_PT174H.grib2 2026-04-30 16:31 667K
20260430T12Z_MSC_GDPS_Rain-Accum12h_Sfc_LatLon0.15_PT174H.grib2 2026-04-30 16:31 2.8M
20260430T12Z_MSC_GDPS_Rain-Accum24h_Sfc_LatLon0.15_PT174H.grib2 2026-04-30 16:31 3.3M
20260430T12Z_MSC_GDPS_Rain-Accum6h_Sfc_LatLon0.15_PT174H.grib2 2026-04-30 16:31 2.5M
20260430T12Z_MSC_GDPS_Rain-Accum_Sfc_LatLon0.15_PT174H.grib2 2026-04-30 16:31 4.2M
20260430T12Z_MSC_GDPS_RelativeHumidity_AGL-2m_LatLon0.15_PT174H.grib2 2026-04-30 16:31 1.0M
20260430T12Z_MSC_GDPS_RelativeHumidity_IsbL-0010_LatLon0.15_PT174H.grib2 2026-04-30 16:31 194K
20260430T12Z_MSC_GDPS_RelativeHumidity_IsbL-0020_LatLon0.15_PT174H.grib2 2026-04-30 16:31 157K
20260430T12Z_MSC_GDPS_RelativeHumidity_IsbL-0030_LatLon0.15_PT174H.grib2 2026-04-30 16:31 295K
20260430T12Z_MSC_GDPS_RelativeHumidity_IsbL-0050_LatLon0.15_PT174H.grib2 2026-04-30 16:31 330K
20260430T12Z_MSC_GDPS_RelativeHumidity_IsbL-0100_LatLon0.15_PT174H.grib2 2026-04-30 16:31 501K
20260430T12Z_MSC_GDPS_RelativeHumidity_IsbL-0150_LatLon0.15_PT174H.grib2 2026-04-30 16:31 678K
20260430T12Z_MSC_GDPS_RelativeHumidity_IsbL-0175_LatLon0.15_PT174H.grib2 2026-04-30 16:31 608K
20260430T12Z_MSC_GDPS_RelativeHumidity_IsbL-0200_LatLon0.15_PT174H.grib2 2026-04-30 16:31 716K
20260430T12Z_MSC_GDPS_RelativeHumidity_IsbL-0225_LatLon0.15_PT174H.grib2 2026-04-30 16:31 797K
20260430T12Z_MSC_GDPS_RelativeHumidity_IsbL-0250_LatLon0.15_PT174H.grib2 2026-04-30 16:31 872K
20260430T12Z_MSC_GDPS_RelativeHumidity_IsbL-0275_LatLon0.15_PT174H.grib2 2026-04-30 16:31 901K
20260430T12Z_MSC_GDPS_RelativeHumidity_IsbL-0300_LatLon0.15_PT174H.grib2 2026-04-30 16:31 943K
20260430T12Z_MSC_GDPS_RelativeHumidity_IsbL-0350_LatLon0.15_PT174H.grib2 2026-04-30 16:31 959K
20260430T12Z_MSC_GDPS_RelativeHumidity_IsbL-0400_LatLon0.15_PT174H.grib2 2026-04-30 16:31 1.0M
20260430T12Z_MSC_GDPS_RelativeHumidity_IsbL-0450_LatLon0.15_PT174H.grib2 2026-04-30 16:31 1.0M
20260430T12Z_MSC_GDPS_RelativeHumidity_IsbL-0500_LatLon0.15_PT174H.grib2 2026-04-30 16:31 1.0M
20260430T12Z_MSC_GDPS_RelativeHumidity_IsbL-0550_LatLon0.15_PT174H.grib2 2026-04-30 16:31 1.0M
20260430T12Z_MSC_GDPS_RelativeHumidity_IsbL-0600_LatLon0.15_PT174H.grib2 2026-04-30 16:31 1.0M
20260430T12Z_MSC_GDPS_RelativeHumidity_IsbL-0650_LatLon0.15_PT174H.grib2 2026-04-30 16:31 1.1M
20260430T12Z_MSC_GDPS_RelativeHumidity_IsbL-0700_LatLon0.15_PT174H.grib2 2026-04-30 16:31 1.1M
20260430T12Z_MSC_GDPS_RelativeHumidity_IsbL-0750_LatLon0.15_PT174H.grib2 2026-04-30 16:31 1.1M
20260430T12Z_MSC_GDPS_RelativeHumidity_IsbL-0800_LatLon0.15_PT174H.grib2 2026-04-30 16:31 1.2M
20260430T12Z_MSC_GDPS_RelativeHumidity_IsbL-0850_LatLon0.15_PT174H.grib2 2026-04-30 16:31 1.3M
20260430T12Z_MSC_GDPS_RelativeHumidity_IsbL-0875_LatLon0.15_PT174H.grib2 2026-04-30 16:31 1.3M
20260430T12Z_MSC_GDPS_RelativeHumidity_IsbL-0900_LatLon0.15_PT174H.grib2 2026-04-30 16:31 1.2M
20260430T12Z_MSC_GDPS_RelativeHumidity_IsbL-0925_LatLon0.15_PT174H.grib2 2026-04-30 16:31 1.2M
20260430T12Z_MSC_GDPS_RelativeHumidity_IsbL-0950_LatLon0.15_PT174H.grib2 2026-04-30 16:31 1.2M
20260430T12Z_MSC_GDPS_RelativeHumidity_IsbL-0970_LatLon0.15_PT174H.grib2 2026-04-30 16:31 1.2M
20260430T12Z_MSC_GDPS_RelativeHumidity_IsbL-0985_LatLon0.15_PT174H.grib2 2026-04-30 16:31 1.2M
20260430T12Z_MSC_GDPS_RelativeHumidity_IsbL-1000_LatLon0.15_PT174H.grib2 2026-04-30 16:31 1.1M
20260430T12Z_MSC_GDPS_RelativeHumidity_IsbL-1015_LatLon0.15_PT174H.grib2 2026-04-30 16:31 1.1M
20260430T12Z_MSC_GDPS_RelativeVorticity_IsbL-0200_LatLon0.15_PT174H.grib2 2026-04-30 16:31 1.5M
20260430T12Z_MSC_GDPS_RelativeVorticity_IsbL-0250_LatLon0.15_PT174H.grib2 2026-04-30 16:31 1.3M
20260430T12Z_MSC_GDPS_RelativeVorticity_IsbL-0500_LatLon0.15_PT174H.grib2 2026-04-30 16:31 1.5M
20260430T12Z_MSC_GDPS_RelativeVorticity_IsbL-0700_LatLon0.15_PT174H.grib2 2026-04-30 16:31 1.3M
20260430T12Z_MSC_GDPS_RelativeVorticity_IsbL-0850_LatLon0.15_PT174H.grib2 2026-04-30 16:31 1.6M
20260430T12Z_MSC_GDPS_Runoff-Accum_Sfc_LatLon0.15_PT174H.grib2 2026-04-30 16:31 123K
20260430T12Z_MSC_GDPS_SensibleHeatNetFlux_Sfc_LatLon0.15_PT174H.grib2 2026-04-30 16:31 629K
20260430T12Z_MSC_GDPS_ShowalterIndex_IsbL-0500_LatLon0.15_PT174H.grib2 2026-04-30 16:31 6.2M
20260430T12Z_MSC_GDPS_Snow-Accum12h_Sfc_LatLon0.15_PT174H.grib2 2026-04-30 16:31 1.6M
20260430T12Z_MSC_GDPS_Snow-Accum24h_Sfc_LatLon0.15_PT174H.grib2 2026-04-30 16:31 1.6M
20260430T12Z_MSC_GDPS_Snow-Accum6h_Sfc_LatLon0.15_PT174H.grib2 2026-04-30 16:31 1.5M
20260430T12Z_MSC_GDPS_Snow-Accum_Sfc_LatLon0.15_PT174H.grib2 2026-04-30 16:31 2.1M
20260430T12Z_MSC_GDPS_SnowDensity_Sfc_LatLon0.15_PT174H.grib2 2026-04-30 16:31 260K
20260430T12Z_MSC_GDPS_SnowDepth_Sfc_LatLon0.15_PT174H.grib2 2026-04-30 16:31 1.7M
20260430T12Z_MSC_GDPS_SoilTemp_DBS-0to10cm_LatLon0.15_PT174H.grib2 2026-04-30 16:31 515K
20260430T12Z_MSC_GDPS_SoilTemp_Sfc_LatLon0.15_PT174H.grib2 2026-04-30 16:31 583K
20260430T12Z_MSC_GDPS_SoilVolumetricIceContent_Sfc_LatLon0.15_PT174H.grib2 2026-04-30 16:31 185K
20260430T12Z_MSC_GDPS_SoilVolumetricWaterContent_DBS-0to10cm_LatLon0.15_PT174H.grib2 2026-04-30 16:31 594K
20260430T12Z_MSC_GDPS_SoilVolumetricWaterContent_DBS-0to1cm_LatLon0.15_PT174H.grib2 2026-04-30 16:31 650K
20260430T12Z_MSC_GDPS_SpecificHumidity_AGL-120m_LatLon0.15_PT174H.grib2 2026-04-30 16:31 1.1M
20260430T12Z_MSC_GDPS_SpecificHumidity_AGL-2m_LatLon0.15_PT174H.grib2 2026-04-30 16:31 1.2M
20260430T12Z_MSC_GDPS_SpecificHumidity_AGL-40m_LatLon0.15_PT174H.grib2 2026-04-30 16:31 1.1M
20260430T12Z_MSC_GDPS_SpecificHumidity_AGL-80m_LatLon0.15_PT174H.grib2 2026-04-30 16:31 1.1M
20260430T12Z_MSC_GDPS_SpecificHumidity_IsbL-0001_LatLon0.15_PT174H.grib2 2026-04-30 16:31 1.2M
20260430T12Z_MSC_GDPS_SpecificHumidity_IsbL-0005_LatLon0.15_PT174H.grib2 2026-04-30 16:31 1.1M
20260430T12Z_MSC_GDPS_SpecificHumidity_IsbL-0010_LatLon0.15_PT174H.grib2 2026-04-30 16:31 1.2M
20260430T12Z_MSC_GDPS_SpecificHumidity_IsbL-0020_LatLon0.15_PT174H.grib2 2026-04-30 16:31 1.2M
20260430T12Z_MSC_GDPS_SpecificHumidity_IsbL-0030_LatLon0.15_PT174H.grib2 2026-04-30 16:31 1.5M
20260430T12Z_MSC_GDPS_SpecificHumidity_IsbL-0050_LatLon0.15_PT174H.grib2 2026-04-30 16:31 1.5M
20260430T12Z_MSC_GDPS_SpecificHumidity_IsbL-0100_LatLon0.15_PT174H.grib2 2026-04-30 16:31 1.2M
20260430T12Z_MSC_GDPS_SpecificHumidity_IsbL-0150_LatLon0.15_PT174H.grib2 2026-04-30 16:31 1.3M
20260430T12Z_MSC_GDPS_SpecificHumidity_IsbL-0175_LatLon0.15_PT174H.grib2 2026-04-30 16:31 1.2M
20260430T12Z_MSC_GDPS_SpecificHumidity_IsbL-0200_LatLon0.15_PT174H.grib2 2026-04-30 16:31 1.3M
20260430T12Z_MSC_GDPS_SpecificHumidity_IsbL-0225_LatLon0.15_PT174H.grib2 2026-04-30 16:31 1.3M
20260430T12Z_MSC_GDPS_SpecificHumidity_IsbL-0250_LatLon0.15_PT174H.grib2 2026-04-30 16:31 1.2M
20260430T12Z_MSC_GDPS_SpecificHumidity_IsbL-0275_LatLon0.15_PT174H.grib2 2026-04-30 16:31 1.3M
20260430T12Z_MSC_GDPS_SpecificHumidity_IsbL-0300_LatLon0.15_PT174H.grib2 2026-04-30 16:31 1.2M
20260430T12Z_MSC_GDPS_SpecificHumidity_IsbL-0350_LatLon0.15_PT174H.grib2 2026-04-30 16:31 1.2M
20260430T12Z_MSC_GDPS_SpecificHumidity_IsbL-0400_LatLon0.15_PT174H.grib2 2026-04-30 16:31 1.5M
20260430T12Z_MSC_GDPS_SpecificHumidity_IsbL-0450_LatLon0.15_PT174H.grib2 2026-04-30 16:31 1.3M
20260430T12Z_MSC_GDPS_SpecificHumidity_IsbL-0500_LatLon0.15_PT174H.grib2 2026-04-30 16:31 1.5M
20260430T12Z_MSC_GDPS_SpecificHumidity_IsbL-0550_LatLon0.15_PT174H.grib2 2026-04-30 16:31 1.6M
20260430T12Z_MSC_GDPS_SpecificHumidity_IsbL-0600_LatLon0.15_PT174H.grib2 2026-04-30 16:31 1.8M
20260430T12Z_MSC_GDPS_SpecificHumidity_IsbL-0650_LatLon0.15_PT174H.grib2 2026-04-30 16:31 1.5M
20260430T12Z_MSC_GDPS_SpecificHumidity_IsbL-0700_LatLon0.15_PT174H.grib2 2026-04-30 16:31 1.6M
20260430T12Z_MSC_GDPS_SpecificHumidity_IsbL-0750_LatLon0.15_PT174H.grib2 2026-04-30 16:31 1.7M
20260430T12Z_MSC_GDPS_SpecificHumidity_IsbL-0800_LatLon0.15_PT174H.grib2 2026-04-30 16:31 1.9M
20260430T12Z_MSC_GDPS_SpecificHumidity_IsbL-0850_LatLon0.15_PT174H.grib2 2026-04-30 16:31 2.0M
20260430T12Z_MSC_GDPS_SpecificHumidity_IsbL-0875_LatLon0.15_PT174H.grib2 2026-04-30 16:31 2.0M
20260430T12Z_MSC_GDPS_SpecificHumidity_IsbL-0900_LatLon0.15_PT174H.grib2 2026-04-30 16:31 1.9M
20260430T12Z_MSC_GDPS_SpecificHumidity_IsbL-0925_LatLon0.15_PT174H.grib2 2026-04-30 16:31 1.9M
20260430T12Z_MSC_GDPS_SpecificHumidity_IsbL-0950_LatLon0.15_PT174H.grib2 2026-04-30 16:31 1.6M
20260430T12Z_MSC_GDPS_SpecificHumidity_IsbL-0970_LatLon0.15_PT174H.grib2 2026-04-30 16:31 1.6M
20260430T12Z_MSC_GDPS_SpecificHumidity_IsbL-0985_LatLon0.15_PT174H.grib2 2026-04-30 16:31 1.5M
20260430T12Z_MSC_GDPS_SpecificHumidity_IsbL-1000_LatLon0.15_PT174H.grib2 2026-04-30 16:31 1.5M
20260430T12Z_MSC_GDPS_SpecificHumidity_IsbL-1015_LatLon0.15_PT174H.grib2 2026-04-30 16:31 1.5M
20260430T12Z_MSC_GDPS_SpecificHumidity_Sfc_LatLon0.15_PT174H.grib2 2026-04-30 16:31 678K
20260430T12Z_MSC_GDPS_Thickness_IsbL-0850to0700_LatLon0.15_PT174H.grib2 2026-04-30 16:31 467K
20260430T12Z_MSC_GDPS_Thickness_IsbL-1000to0500_LatLon0.15_PT174H.grib2 2026-04-30 16:31 369K
20260430T12Z_MSC_GDPS_Thickness_IsbL-1000to0850_LatLon0.15_PT174H.grib2 2026-04-30 16:31 488K
20260430T12Z_MSC_GDPS_TotalCloudCover_Sfc_LatLon0.15_PT174H.grib2 2026-04-30 16:31 838K
20260430T12Z_MSC_GDPS_TotalTotalsIndex_Sfc_LatLon0.15_PT174H.grib2 2026-04-30 16:31 6.2M
20260430T12Z_MSC_GDPS_UVIndex-ClearSky-Max24h_Sfc_LatLon0.15_PT174H.grib2 2026-04-30 16:45 2.2M
20260430T12Z_MSC_GDPS_UVIndex-ClearSky_Sfc_LatLon0.15_PT174H.grib2 2026-04-30 16:45 1.0M
20260430T12Z_MSC_GDPS_UVIndex-Max24h_Sfc_LatLon0.15_PT174H.grib2 2026-04-30 16:45 3.2M
20260430T12Z_MSC_GDPS_UVIndex_Sfc_LatLon0.15_PT174H.grib2 2026-04-30 16:45 1.5M
20260430T12Z_MSC_GDPS_UpwardLongwaveRadiationFlux_NTAtm_LatLon0.15_PT174H.grib2 2026-04-30 16:31 841K
20260430T12Z_MSC_GDPS_VerticalVelocity_IsbL-0200_LatLon0.15_PT174H.grib2 2026-04-30 16:31 1.1M
20260430T12Z_MSC_GDPS_VerticalVelocity_IsbL-0250_LatLon0.15_PT174H.grib2 2026-04-30 16:31 1.0M
20260430T12Z_MSC_GDPS_VerticalVelocity_IsbL-0500_LatLon0.15_PT174H.grib2 2026-04-30 16:31 1.3M
20260430T12Z_MSC_GDPS_VerticalVelocity_IsbL-0600_LatLon0.15_PT174H.grib2 2026-04-30 16:31 1.3M
20260430T12Z_MSC_GDPS_VerticalVelocity_IsbL-0700_LatLon0.15_PT174H.grib2 2026-04-30 16:31 1.4M
20260430T12Z_MSC_GDPS_VerticalVelocity_IsbL-0850_LatLon0.15_PT174H.grib2 2026-04-30 16:31 1.6M
20260430T12Z_MSC_GDPS_WindChill_Sfc_LatLon0.15_PT174H.grib2 2026-04-30 16:31 5.3M
20260430T12Z_MSC_GDPS_WindDir_AGL-10m_LatLon0.15_PT174H.grib2 2026-04-30 16:31 1.3M
20260430T12Z_MSC_GDPS_WindDir_AGL-120m_LatLon0.15_PT174H.grib2 2026-04-30 16:31 1.4M
20260430T12Z_MSC_GDPS_WindDir_AGL-40m_LatLon0.15_PT174H.grib2 2026-04-30 16:31 1.4M
20260430T12Z_MSC_GDPS_WindDir_AGL-80m_LatLon0.15_PT174H.grib2 2026-04-30 16:31 1.4M
20260430T12Z_MSC_GDPS_WindDir_IsbL-0001_LatLon0.15_PT174H.grib2 2026-04-30 16:31 671K
20260430T12Z_MSC_GDPS_WindDir_IsbL-0005_LatLon0.15_PT174H.grib2 2026-04-30 16:31 818K
20260430T12Z_MSC_GDPS_WindDir_IsbL-0010_LatLon0.15_PT174H.grib2 2026-04-30 16:31 826K
20260430T12Z_MSC_GDPS_WindDir_IsbL-0020_LatLon0.15_PT174H.grib2 2026-04-30 16:31 944K
20260430T12Z_MSC_GDPS_WindDir_IsbL-0030_LatLon0.15_PT174H.grib2 2026-04-30 16:31 943K
20260430T12Z_MSC_GDPS_WindDir_IsbL-0050_LatLon0.15_PT174H.grib2 2026-04-30 16:31 956K
20260430T12Z_MSC_GDPS_WindDir_IsbL-0100_LatLon0.15_PT174H.grib2 2026-04-30 16:31 1.0M
20260430T12Z_MSC_GDPS_WindDir_IsbL-0150_LatLon0.15_PT174H.grib2 2026-04-30 16:31 1.0M
20260430T12Z_MSC_GDPS_WindDir_IsbL-0175_LatLon0.15_PT174H.grib2 2026-04-30 16:31 1.1M
20260430T12Z_MSC_GDPS_WindDir_IsbL-0200_LatLon0.15_PT174H.grib2 2026-04-30 16:31 1.1M
20260430T12Z_MSC_GDPS_WindDir_IsbL-0225_LatLon0.15_PT174H.grib2 2026-04-30 16:31 1.1M
20260430T12Z_MSC_GDPS_WindDir_IsbL-0250_LatLon0.15_PT174H.grib2 2026-04-30 16:31 1.1M
20260430T12Z_MSC_GDPS_WindDir_IsbL-0275_LatLon0.15_PT174H.grib2 2026-04-30 16:31 1.2M
20260430T12Z_MSC_GDPS_WindDir_IsbL-0300_LatLon0.15_PT174H.grib2 2026-04-30 16:31 1.2M
20260430T12Z_MSC_GDPS_WindDir_IsbL-0350_LatLon0.15_PT174H.grib2 2026-04-30 16:31 1.3M
20260430T12Z_MSC_GDPS_WindDir_IsbL-0400_LatLon0.15_PT174H.grib2 2026-04-30 16:31 1.3M
20260430T12Z_MSC_GDPS_WindDir_IsbL-0450_LatLon0.15_PT174H.grib2 2026-04-30 16:31 1.3M
20260430T12Z_MSC_GDPS_WindDir_IsbL-0500_LatLon0.15_PT174H.grib2 2026-04-30 16:31 1.4M
20260430T12Z_MSC_GDPS_WindDir_IsbL-0550_LatLon0.15_PT174H.grib2 2026-04-30 16:31 1.4M
20260430T12Z_MSC_GDPS_WindDir_IsbL-0600_LatLon0.15_PT174H.grib2 2026-04-30 16:31 1.5M
20260430T12Z_MSC_GDPS_WindDir_IsbL-0650_LatLon0.15_PT174H.grib2 2026-04-30 16:31 1.5M
20260430T12Z_MSC_GDPS_WindDir_IsbL-0700_LatLon0.15_PT174H.grib2 2026-04-30 16:31 1.6M
20260430T12Z_MSC_GDPS_WindDir_IsbL-0750_LatLon0.15_PT174H.grib2 2026-04-30 16:31 1.7M
20260430T12Z_MSC_GDPS_WindDir_IsbL-0800_LatLon0.15_PT174H.grib2 2026-04-30 16:31 1.8M
20260430T12Z_MSC_GDPS_WindDir_IsbL-0850_LatLon0.15_PT174H.grib2 2026-04-30 16:31 1.9M
20260430T12Z_MSC_GDPS_WindDir_IsbL-0875_LatLon0.15_PT174H.grib2 2026-04-30 16:31 2.0M
20260430T12Z_MSC_GDPS_WindDir_IsbL-0900_LatLon0.15_PT174H.grib2 2026-04-30 16:31 2.0M
20260430T12Z_MSC_GDPS_WindDir_IsbL-0925_LatLon0.15_PT174H.grib2 2026-04-30 16:31 2.0M
20260430T12Z_MSC_GDPS_WindDir_IsbL-0950_LatLon0.15_PT174H.grib2 2026-04-30 16:31 2.0M
20260430T12Z_MSC_GDPS_WindDir_IsbL-0970_LatLon0.15_PT174H.grib2 2026-04-30 16:31 2.0M
20260430T12Z_MSC_GDPS_WindDir_IsbL-0985_LatLon0.15_PT174H.grib2 2026-04-30 16:31 2.0M
20260430T12Z_MSC_GDPS_WindDir_IsbL-1000_LatLon0.15_PT174H.grib2 2026-04-30 16:31 2.1M
20260430T12Z_MSC_GDPS_WindDir_IsbL-1015_LatLon0.15_PT174H.grib2 2026-04-30 16:31 2.0M
20260430T12Z_MSC_GDPS_WindGust-Max_AGL-10m_LatLon0.15_PT174H.grib2 2026-04-30 16:31 2.3M
20260430T12Z_MSC_GDPS_WindGust-Min_AGL-10m_LatLon0.15_PT174H.grib2 2026-04-30 16:31 2.2M
20260430T12Z_MSC_GDPS_WindGust_AGL-10m_LatLon0.15_PT174H.grib2 2026-04-30 16:31 2.2M
20260430T12Z_MSC_GDPS_WindSpeed_AGL-10m_LatLon0.15_PT174H.grib2 2026-04-30 16:31 1.1M
20260430T12Z_MSC_GDPS_WindSpeed_AGL-120m_LatLon0.15_PT174H.grib2 2026-04-30 16:31 1.2M
20260430T12Z_MSC_GDPS_WindSpeed_AGL-40m_LatLon0.15_PT174H.grib2 2026-04-30 16:31 1.2M
20260430T12Z_MSC_GDPS_WindSpeed_AGL-80m_LatLon0.15_PT174H.grib2 2026-04-30 16:31 1.2M
20260430T12Z_MSC_GDPS_WindSpeed_IsbL-0001_LatLon0.15_PT174H.grib2 2026-04-30 16:31 652K
20260430T12Z_MSC_GDPS_WindSpeed_IsbL-0005_LatLon0.15_PT174H.grib2 2026-04-30 16:31 692K
20260430T12Z_MSC_GDPS_WindSpeed_IsbL-0010_LatLon0.15_PT174H.grib2 2026-04-30 16:31 625K
20260430T12Z_MSC_GDPS_WindSpeed_IsbL-0020_LatLon0.15_PT174H.grib2 2026-04-30 16:31 663K
20260430T12Z_MSC_GDPS_WindSpeed_IsbL-0030_LatLon0.15_PT174H.grib2 2026-04-30 16:31 666K
20260430T12Z_MSC_GDPS_WindSpeed_IsbL-0050_LatLon0.15_PT174H.grib2 2026-04-30 16:31 894K
20260430T12Z_MSC_GDPS_WindSpeed_IsbL-0100_LatLon0.15_PT174H.grib2 2026-04-30 16:31 1.1M
20260430T12Z_MSC_GDPS_WindSpeed_IsbL-0150_LatLon0.15_PT174H.grib2 2026-04-30 16:31 1.0M
20260430T12Z_MSC_GDPS_WindSpeed_IsbL-0175_LatLon0.15_PT174H.grib2 2026-04-30 16:31 1.0M
20260430T12Z_MSC_GDPS_WindSpeed_IsbL-0200_LatLon0.15_PT174H.grib2 2026-04-30 16:31 1.1M
20260430T12Z_MSC_GDPS_WindSpeed_IsbL-0225_LatLon0.15_PT174H.grib2 2026-04-30 16:31 1.1M
20260430T12Z_MSC_GDPS_WindSpeed_IsbL-0250_LatLon0.15_PT174H.grib2 2026-04-30 16:31 1.1M
20260430T12Z_MSC_GDPS_WindSpeed_IsbL-0275_LatLon0.15_PT174H.grib2 2026-04-30 16:31 1.1M
20260430T12Z_MSC_GDPS_WindSpeed_IsbL-0300_LatLon0.15_PT174H.grib2 2026-04-30 16:31 1.1M
20260430T12Z_MSC_GDPS_WindSpeed_IsbL-0350_LatLon0.15_PT174H.grib2 2026-04-30 16:31 1.1M
20260430T12Z_MSC_GDPS_WindSpeed_IsbL-0400_LatLon0.15_PT174H.grib2 2026-04-30 16:31 1.1M
20260430T12Z_MSC_GDPS_WindSpeed_IsbL-0450_LatLon0.15_PT174H.grib2 2026-04-30 16:31 1.1M
20260430T12Z_MSC_GDPS_WindSpeed_IsbL-0500_LatLon0.15_PT174H.grib2 2026-04-30 16:31 1.1M
20260430T12Z_MSC_GDPS_WindSpeed_IsbL-0550_LatLon0.15_PT174H.grib2 2026-04-30 16:31 1.1M
20260430T12Z_MSC_GDPS_WindSpeed_IsbL-0600_LatLon0.15_PT174H.grib2 2026-04-30 16:31 1.1M
20260430T12Z_MSC_GDPS_WindSpeed_IsbL-0650_LatLon0.15_PT174H.grib2 2026-04-30 16:31 1.2M
20260430T12Z_MSC_GDPS_WindSpeed_IsbL-0700_LatLon0.15_PT174H.grib2 2026-04-30 16:31 1.2M
20260430T12Z_MSC_GDPS_WindSpeed_IsbL-0750_LatLon0.15_PT174H.grib2 2026-04-30 16:31 1.6M
20260430T12Z_MSC_GDPS_WindSpeed_IsbL-0800_LatLon0.15_PT174H.grib2 2026-04-30 16:31 1.7M
20260430T12Z_MSC_GDPS_WindSpeed_IsbL-0850_LatLon0.15_PT174H.grib2 2026-04-30 16:31 1.8M
20260430T12Z_MSC_GDPS_WindSpeed_IsbL-0875_LatLon0.15_PT174H.grib2 2026-04-30 16:31 1.8M
20260430T12Z_MSC_GDPS_WindSpeed_IsbL-0900_LatLon0.15_PT174H.grib2 2026-04-30 16:31 1.9M
20260430T12Z_MSC_GDPS_WindSpeed_IsbL-0925_LatLon0.15_PT174H.grib2 2026-04-30 16:31 1.9M
20260430T12Z_MSC_GDPS_WindSpeed_IsbL-0950_LatLon0.15_PT174H.grib2 2026-04-30 16:31 1.9M
20260430T12Z_MSC_GDPS_WindSpeed_IsbL-0970_LatLon0.15_PT174H.grib2 2026-04-30 16:31 1.9M
20260430T12Z_MSC_GDPS_WindSpeed_IsbL-0985_LatLon0.15_PT174H.grib2 2026-04-30 16:31 1.8M
20260430T12Z_MSC_GDPS_WindSpeed_IsbL-1000_LatLon0.15_PT174H.grib2 2026-04-30 16:31 1.8M
20260430T12Z_MSC_GDPS_WindSpeed_IsbL-1015_LatLon0.15_PT174H.grib2 2026-04-30 16:31 1.8M
20260430T12Z_MSC_GDPS_WindU_AGL-10m_LatLon0.15_PT174H.grib2 2026-04-30 16:31 1.3M
20260430T12Z_MSC_GDPS_WindU_AGL-120m_LatLon0.15_PT174H.grib2 2026-04-30 16:31 1.0M
20260430T12Z_MSC_GDPS_WindU_AGL-40m_LatLon0.15_PT174H.grib2 2026-04-30 16:31 971K
20260430T12Z_MSC_GDPS_WindU_AGL-80m_LatLon0.15_PT174H.grib2 2026-04-30 16:31 1.0M
20260430T12Z_MSC_GDPS_WindU_IsbL-0001_LatLon0.15_PT174H.grib2 2026-04-30 16:31 503K
20260430T12Z_MSC_GDPS_WindU_IsbL-0005_LatLon0.15_PT174H.grib2 2026-04-30 16:31 693K
20260430T12Z_MSC_GDPS_WindU_IsbL-0010_LatLon0.15_PT174H.grib2 2026-04-30 16:31 701K
20260430T12Z_MSC_GDPS_WindU_IsbL-0020_LatLon0.15_PT174H.grib2 2026-04-30 16:31 729K
20260430T12Z_MSC_GDPS_WindU_IsbL-0030_LatLon0.15_PT174H.grib2 2026-04-30 16:31 736K
20260430T12Z_MSC_GDPS_WindU_IsbL-0050_LatLon0.15_PT174H.grib2 2026-04-30 16:31 758K
20260430T12Z_MSC_GDPS_WindU_IsbL-0100_LatLon0.15_PT174H.grib2 2026-04-30 16:31 864K
20260430T12Z_MSC_GDPS_WindU_IsbL-0150_LatLon0.15_PT174H.grib2 2026-04-30 16:31 1.0M
20260430T12Z_MSC_GDPS_WindU_IsbL-0175_LatLon0.15_PT174H.grib2 2026-04-30 16:31 1.0M
20260430T12Z_MSC_GDPS_WindU_IsbL-0200_LatLon0.15_PT174H.grib2 2026-04-30 16:31 843K
20260430T12Z_MSC_GDPS_WindU_IsbL-0225_LatLon0.15_PT174H.grib2 2026-04-30 16:31 856K
20260430T12Z_MSC_GDPS_WindU_IsbL-0250_LatLon0.15_PT174H.grib2 2026-04-30 16:31 858K
20260430T12Z_MSC_GDPS_WindU_IsbL-0275_LatLon0.15_PT174H.grib2 2026-04-30 16:31 888K
20260430T12Z_MSC_GDPS_WindU_IsbL-0300_LatLon0.15_PT174H.grib2 2026-04-30 16:31 881K
20260430T12Z_MSC_GDPS_WindU_IsbL-0350_LatLon0.15_PT174H.grib2 2026-04-30 16:31 894K
20260430T12Z_MSC_GDPS_WindU_IsbL-0400_LatLon0.15_PT174H.grib2 2026-04-30 16:31 897K
20260430T12Z_MSC_GDPS_WindU_IsbL-0450_LatLon0.15_PT174H.grib2 2026-04-30 16:31 1.1M
20260430T12Z_MSC_GDPS_WindU_IsbL-0500_LatLon0.15_PT174H.grib2 2026-04-30 16:31 1.1M
20260430T12Z_MSC_GDPS_WindU_IsbL-0550_LatLon0.15_PT174H.grib2 2026-04-30 16:31 1.1M
20260430T12Z_MSC_GDPS_WindU_IsbL-0600_LatLon0.15_PT174H.grib2 2026-04-30 16:31 1.2M
20260430T12Z_MSC_GDPS_WindU_IsbL-0650_LatLon0.15_PT174H.grib2 2026-04-30 16:31 1.2M
20260430T12Z_MSC_GDPS_WindU_IsbL-0700_LatLon0.15_PT174H.grib2 2026-04-30 16:31 1.2M
20260430T12Z_MSC_GDPS_WindU_IsbL-0750_LatLon0.15_PT174H.grib2 2026-04-30 16:31 1.3M
20260430T12Z_MSC_GDPS_WindU_IsbL-0800_LatLon0.15_PT174H.grib2 2026-04-30 16:31 1.4M
20260430T12Z_MSC_GDPS_WindU_IsbL-0850_LatLon0.15_PT174H.grib2 2026-04-30 16:31 1.4M
20260430T12Z_MSC_GDPS_WindU_IsbL-0875_LatLon0.15_PT174H.grib2 2026-04-30 16:31 1.5M
20260430T12Z_MSC_GDPS_WindU_IsbL-0900_LatLon0.15_PT174H.grib2 2026-04-30 16:31 1.5M
20260430T12Z_MSC_GDPS_WindU_IsbL-0925_LatLon0.15_PT174H.grib2 2026-04-30 16:31 1.5M
20260430T12Z_MSC_GDPS_WindU_IsbL-0950_LatLon0.15_PT174H.grib2 2026-04-30 16:31 1.4M
20260430T12Z_MSC_GDPS_WindU_IsbL-0970_LatLon0.15_PT174H.grib2 2026-04-30 16:31 1.4M
20260430T12Z_MSC_GDPS_WindU_IsbL-0985_LatLon0.15_PT174H.grib2 2026-04-30 16:31 1.4M
20260430T12Z_MSC_GDPS_WindU_IsbL-1000_LatLon0.15_PT174H.grib2 2026-04-30 16:31 1.4M
20260430T12Z_MSC_GDPS_WindU_IsbL-1015_LatLon0.15_PT174H.grib2 2026-04-30 16:31 1.3M
20260430T12Z_MSC_GDPS_WindV_AGL-10m_LatLon0.15_PT174H.grib2 2026-04-30 16:31 1.6M
20260430T12Z_MSC_GDPS_WindV_AGL-120m_LatLon0.15_PT174H.grib2 2026-04-30 16:31 1.0M
20260430T12Z_MSC_GDPS_WindV_AGL-40m_LatLon0.15_PT174H.grib2 2026-04-30 16:31 969K
20260430T12Z_MSC_GDPS_WindV_AGL-80m_LatLon0.15_PT174H.grib2 2026-04-30 16:31 1.0M
20260430T12Z_MSC_GDPS_WindV_IsbL-0001_LatLon0.15_PT174H.grib2 2026-04-30 16:31 785K
20260430T12Z_MSC_GDPS_WindV_IsbL-0005_LatLon0.15_PT174H.grib2 2026-04-30 16:31 788K
20260430T12Z_MSC_GDPS_WindV_IsbL-0010_LatLon0.15_PT174H.grib2 2026-04-30 16:31 885K
20260430T12Z_MSC_GDPS_WindV_IsbL-0020_LatLon0.15_PT174H.grib2 2026-04-30 16:31 849K
20260430T12Z_MSC_GDPS_WindV_IsbL-0030_LatLon0.15_PT174H.grib2 2026-04-30 16:31 852K
20260430T12Z_MSC_GDPS_WindV_IsbL-0050_LatLon0.15_PT174H.grib2 2026-04-30 16:31 1.0M
20260430T12Z_MSC_GDPS_WindV_IsbL-0100_LatLon0.15_PT174H.grib2 2026-04-30 16:31 1.1M
20260430T12Z_MSC_GDPS_WindV_IsbL-0150_LatLon0.15_PT174H.grib2 2026-04-30 16:31 1.0M
20260430T12Z_MSC_GDPS_WindV_IsbL-0175_LatLon0.15_PT174H.grib2 2026-04-30 16:31 1.0M
20260430T12Z_MSC_GDPS_WindV_IsbL-0200_LatLon0.15_PT174H.grib2 2026-04-30 16:31 839K
20260430T12Z_MSC_GDPS_WindV_IsbL-0225_LatLon0.15_PT174H.grib2 2026-04-30 16:31 850K
20260430T12Z_MSC_GDPS_WindV_IsbL-0250_LatLon0.15_PT174H.grib2 2026-04-30 16:31 912K
20260430T12Z_MSC_GDPS_WindV_IsbL-0275_LatLon0.15_PT174H.grib2 2026-04-30 16:31 939K
20260430T12Z_MSC_GDPS_WindV_IsbL-0300_LatLon0.15_PT174H.grib2 2026-04-30 16:31 931K
20260430T12Z_MSC_GDPS_WindV_IsbL-0350_LatLon0.15_PT174H.grib2 2026-04-30 16:31 884K
20260430T12Z_MSC_GDPS_WindV_IsbL-0400_LatLon0.15_PT174H.grib2 2026-04-30 16:31 886K
20260430T12Z_MSC_GDPS_WindV_IsbL-0450_LatLon0.15_PT174H.grib2 2026-04-30 16:31 1.1M
20260430T12Z_MSC_GDPS_WindV_IsbL-0500_LatLon0.15_PT174H.grib2 2026-04-30 16:31 1.1M
20260430T12Z_MSC_GDPS_WindV_IsbL-0550_LatLon0.15_PT174H.grib2 2026-04-30 16:31 1.1M
20260430T12Z_MSC_GDPS_WindV_IsbL-0600_LatLon0.15_PT174H.grib2 2026-04-30 16:31 1.1M
20260430T12Z_MSC_GDPS_WindV_IsbL-0650_LatLon0.15_PT174H.grib2 2026-04-30 16:31 1.2M
20260430T12Z_MSC_GDPS_WindV_IsbL-0700_LatLon0.15_PT174H.grib2 2026-04-30 16:31 1.2M
20260430T12Z_MSC_GDPS_WindV_IsbL-0750_LatLon0.15_PT174H.grib2 2026-04-30 16:31 1.3M
20260430T12Z_MSC_GDPS_WindV_IsbL-0800_LatLon0.15_PT174H.grib2 2026-04-30 16:31 1.3M
20260430T12Z_MSC_GDPS_WindV_IsbL-0850_LatLon0.15_PT174H.grib2 2026-04-30 16:31 1.4M
20260430T12Z_MSC_GDPS_WindV_IsbL-0875_LatLon0.15_PT174H.grib2 2026-04-30 16:31 1.5M
20260430T12Z_MSC_GDPS_WindV_IsbL-0900_LatLon0.15_PT174H.grib2 2026-04-30 16:31 1.5M
20260430T12Z_MSC_GDPS_WindV_IsbL-0925_LatLon0.15_PT174H.grib2 2026-04-30 16:31 1.5M
20260430T12Z_MSC_GDPS_WindV_IsbL-0950_LatLon0.15_PT174H.grib2 2026-04-30 16:31 1.4M
20260430T12Z_MSC_GDPS_WindV_IsbL-0970_LatLon0.15_PT174H.grib2 2026-04-30 16:31 1.4M
20260430T12Z_MSC_GDPS_WindV_IsbL-0985_LatLon0.15_PT174H.grib2 2026-04-30 16:31 1.4M
20260430T12Z_MSC_GDPS_WindV_IsbL-1000_LatLon0.15_PT174H.grib2 2026-04-30 16:31 1.7M
20260430T12Z_MSC_GDPS_WindV_IsbL-1015_LatLon0.15_PT174H.grib2 2026-04-30 16:31 1.6M